AMAZONAS 5

Last updated on Sat Nov 15 2025 00:02:51 GMT+0000 (Coordinated Universal Time)

1 42934U 17053A 25317.37084580 -.00000284 00000+0 00000+0 0 9994 2 42934 0.0336 320.0112 0004199 299.8787 225.3671 1.00271491 29886
UTC large
Height (km)
Speed (km/s)
/
Latitude / Longitude
Inclination (degrees)
Orbital Period (minutes)
Azimuth
Elevation
Range (km)
Doppler Factor

Next 0 passes for location: London (51.5072 / 0.1276)

Sorry there are no passes over London.